DECAYED

CZ-6A DEB, 61413 (Decayed)

Orbit data source: Space-Track

CZ-6A DEB, 61413 was space debris in LEO originally from a launch on Tue, 06 Aug 2024 UTC launched from the Taiyaun Space Center, China (TSC). Debris objects in space refer to the collection of defunct objects orbiting the Earth. Examples of debris include non-operational satellites, rocket bodies, and fragments generated from explosions, collisions, or faulty payload assembly.

Loading next visibility...
Identifier
61413, 2024-140YE
Orbit
Decayed
Country
Flag of CNCN / PRC
Related business
Manufacturer
SAST
Mission
Decayed spacecraft
Bus & Motor
Unknown
Mass
Unknown
Launch date (UTC)
2024-08-06 (2 years ago)
Launch vehicle
Unknown
Launch site
Taiyaun Space Center, China (TSC)
Object type
Payload
Rocket body
Debris
Shape & HBR
Unknown shape, 0.1 m
Radar Cross Section
Small (<0.1 m²)

Expand to show TLE details & history
Last TLE update: 9 months ago

TLE from 9 months ago
0 CZ-6A DEB
1 61413U 24140YE  25224.72570707  .05759930  80805-1  10679-1 0  9990
2 61413  89.2356 315.4119 0011282 342.7385  17.3522 16.06793862 50968
Epoch: 2025-08-12T17:25Z
TLE epoch observation values (Epoch: 2025-08-12T17:25:01.090Z)
Latitude
-0.00005°
Longitude
92.74313°
Altitude
251.825 km
Speed
7.76 km/s
True Right ascension
21h 01m 38s
True Declination
0° 00' 00"
Sunlit
Object was in full shadow at epoch
Visualization orbit readout
Latitude
Unknown
Longitude
Unknown
Altitude
Unknown
Speed
Unknown
Apparent Right ascension
Unknown
Apparent Declination
Unknown
Sunlit
N/A
Visualization observer readout
Local Sidereal Time
19:53:01
Azimuth
Unknown
Elevation
Unknown
Doppler factor
Unknown
Orbital elements
Apogee altitude
259.821 km
Perigee altitude
244.86 km
Semi-major axis
6,630.478 km
Eccentricity
0.00113
Inclination
89.2356°
RAAN
315.4119°
Arg. of periapsis
342.7385°
True anomaly
17.39081°
Mean anomaly
17.3522°
Eccentric anomaly
17.3715°
Mean motion
4.02 °/min
Orbital period
89.55 mins
BSTAR
0.010679
Loading maneuver chart data...
Computing Atmospheric mass density...
Loading historical data...
Loading historical data...
Loading historical data...
Loading historical data...
Loading historical data...
Loading historical data...
Loading historical data...

Documentation

Showing up to 5 results
|